Zurück zum Katalog

STARLINK-36467

AktivKommunikationVLEO
NORAD 67348·PAYLOAD·🇺🇸 United States

Gestartet Jan 9, 2026 von Cape Canaveral Space Force Station

Loading…

Nächste Überflüge (nächste 24 Stunden)

TLE

AktuellSource: CelesTrak SupGP

Epoche: Sep 15, 2026, 03:46 UTC

1 67348C 26003Q   26258.15743056 -.00023453  00000+0 -85022-3 0  2589
2 67348  43.0022 237.2236 0001195 266.1795 272.1721 15.27561031    12

Verfolge STARLINK-36467 in Echtzeit mit AllMySat

Download on the App Store